Madawaska, ME

9:13 AM EST on February 14, 2016 (GMT -0500)
Northern Aroostook Regional

Weather History for KFVE - January, 2013

Change the Weather History Date:

Tuesday, January 8, 2013

  Actual Average Record
Temperature  
Mean Temperature 13 °F 9 °F  
Max Temperature 31 °F 18 °F 45 °F (2008)
Min Temperature -5 °F 1 °F -24 °F (2015)
Degree Days  
Heating Degree Days 52    
Month to date heating degree days 487  
Since 1 July heating degree days 3898  
Cooling Degree Days 0    
Month to date cooling degree days 0  
Year to date cooling degree days 0  
Moisture  
Dew Point 12 °F    
Average Humidity 76    
Maximum Humidity 81    
Minimum Humidity 69    
Precipitation  
Precipitation T in 0.09 in 0.53 in (2008)
Month to date precipitation 0.02 0.93  
Year to date precipitation 0.02 0.93  
Sea Level Pressure  
Sea Level Pressure 30.08 in    
Wind  
Wind Speed 11 mph (SSW)    
Max Wind Speed 28 mph    
Max Gust Speed 35 mph    
Visibility 10 miles    
Events      
T = Trace of Precipitation, MM = Missing Value Source: NWS Daily Summary

Daily Weather History Graph

Daily Weather History Graph

Search for Another Location

Airport or City:

Trip Planner

Search our weather history database for the weather conditions in past years. The results will help you decide how hot, cold, wet, or windy it might be!

Date:

Astronomy

Jan. 08, 2013 Rise Set
Actual Time 7:18 AM EST 4:01 PM EST
Civil Twilight 6:43 AM EST 4:36 PM EST
Nautical Twilight 6:05 AM EST 5:15 PM EST
Astronomical Twilight 5:28 AM EST 5:52 PM EST
Moon 3:46 AM EST (1/8) 1:01 PM EST (1/8)
Length of Visible Light 9h 52m
Length of Day
8h 42m
Waning Crescent, 14% of the Moon is Illuminated
Jan 8
Waning Crescent
Jan 11
New
Jan 18
First Quarter
Jan 26
Full
Feb 3
Last Quarter

Hourly Weather History & Observations

Time (EST) Temp. Windchill Dew Point Humidity Pressure Visibility Wind Dir Wind Speed Gust Speed Precip Events Conditions
12:53 AM -2.0 °F -18.7 °F -9.9 °F 69% 30.19 in 10.0 mi SSE 10.4 mph - N/A   Clear
1:53 AM -2.0 °F -16.6 °F -9.0 °F 72% 30.18 in 10.0 mi SSE 8.1 mph - N/A   Clear
2:53 AM -0.9 °F -18.3 °F -8.0 °F 72% 30.12 in 10.0 mi SSE 11.5 mph - N/A   Clear
3:53 AM -0.9 °F -17.4 °F -8.0 °F 72% 30.08 in 10.0 mi SSE 10.4 mph - N/A   Overcast
4:53 AM 3.0 °F -11.5 °F -4.0 °F 73% 30.05 in 10.0 mi SSE 9.2 mph - 0.00 in   Overcast
5:53 AM 6.1 °F -8.7 °F -0.9 °F 73% 30.05 in 10.0 mi SSE 10.4 mph - N/A   Overcast
6:53 AM 7.0 °F -5.7 °F 1.0 °F 77% 30.05 in 10.0 mi SSE 8.1 mph - N/A   Overcast
7:53 AM 9.0 °F -3.2 °F 3.0 °F 77% 30.06 in 10.0 mi SE 8.1 mph - N/A   Overcast
8:34 AM 10.4 °F -1.5 °F 5.0 °F 79% 29.98 in 10.0 mi SSE 8.1 mph - N/A   Overcast
8:53 AM 10.9 °F 2.9 °F 5.0 °F 77% 30.05 in 10.0 mi South 4.6 mph - N/A   Overcast
9:53 AM 15.1 °F 2.5 °F 9.0 °F 77% 30.04 in 10.0 mi South 10.4 mph - N/A   Overcast
10:48 AM 19.4 °F 10.4 °F 12.2 °F 74% 29.95 in 10.0 mi SSW 6.9 mph - N/A   Overcast
10:53 AM 19.0 °F 11.1 °F 12.0 °F 74% 30.02 in 10.0 mi SSW 5.8 mph - N/A   Overcast
11:53 AM 21.9 °F 14.5 °F 15.1 °F 75% 30.02 in 10.0 mi ESE 5.8 mph - N/A   Overcast
12:53 PM 30.0 °F 17.9 °F 23.0 °F 75% 30.00 in 10.0 mi West 18.4 mph 29.9 mph N/A   Mostly Cloudy
1:53 PM 30.9 °F 18.4 °F 23.0 °F 72% 30.01 in 10.0 mi WSW 20.7 mph 28.8 mph N/A   Overcast
2:53 PM 30.0 °F 19.5 °F 23.0 °F 75% 30.04 in 10.0 mi West 13.8 mph 23.0 mph N/A   Mostly Cloudy
3:53 PM 30.0 °F 19.1 °F 23.0 °F 75% 30.06 in 10.0 mi WSW 15.0 mph 26.5 mph N/A   Scattered Clouds
4:19 PM 30.2 °F 19.8 °F 23.0 °F 75% 30.02 in 10.0 mi WSW 13.8 mph 21.9 mph N/A   Mostly Cloudy
4:53 PM 28.9 °F 19.2 °F 23.0 °F 78% 30.09 in 10.0 mi WSW 11.5 mph - N/A   Scattered Clouds
5:53 PM 28.9 °F 18.2 °F 23.0 °F 78% 30.12 in 10.0 mi West 13.8 mph 18.4 mph N/A   Clear
6:53 PM 28.9 °F 17.7 °F 23.0 °F 78% 30.14 in 10.0 mi WSW 15.0 mph - N/A   Overcast
7:53 PM 28.9 °F 18.6 °F 23.0 °F 78% 30.16 in 10.0 mi West 12.7 mph - N/A   Mostly Cloudy
8:53 PM 28.0 °F 17.5 °F 23.0 °F 81% 30.17 in 10.0 mi West 12.7 mph - N/A   Mostly Cloudy
9:53 PM 28.9 °F 18.6 °F 23.0 °F 78% 30.19 in 10.0 mi West 12.7 mph - N/A   Overcast
10:53 PM 28.9 °F 21.1 °F 23.0 °F 78% 30.22 in 10.0 mi West 8.1 mph - N/A   Overcast
11:53 PM 28.4 °F 22.2 °F 23.0 °F 80% 30.19 in 10.0 mi West 5.8 mph - N/A   Overcast